Weather in Plyos

Russia / Ivanovo Oblast     57°27′38″N   41°30′44″E
temp.,
°C
wind,
m/s
gust,
m/s
humid.,
%
clouds,
%
prec.,
mm/h
press.,
hPa
HPBL,
m
3 march, wed
wed300:00−6nw5139133 0.0 1006490
03:00−7nw6129266 0.1 1008545
06:00−8nw61294100 0.1 1009499
09:00−7nw61193100 0.1 1010554
12:00−4wnw61089100 0.1 1009699
15:00−2w5994100 0.3 1008681
18:00−2w71295100 0.8 1005816
21:00−3w61392100 1.1 1004676
4 march, thu
thu400:00−3wsw61295100 0.3 1001657
03:00−2wsw71496100 1.0 998811
06:00−2w71396100 0.6 995962
09:00−4wnw7148778 0.8 995778
12:00−4wnw7118899 0.1 996893
15:00−2nw6884100 0.3 9981032
18:00−6nw369291 0.2 999149
21:00−10nnw339064 0.2 100140
5 march, fri
fri500:00−12nnw23940 0.0 100222
03:00−14nnw22950 0.0 100320
06:00−15nnw33960 0.0 100540
09:00−13nnw23900 0.0 1006141
12:00−8wnw23820 0.0 1007386
15:00−7w34821 0.0 1008517
18:00−10wsw33890 0.0 100835
21:00−11wsw349529 0.0 101080
6 march, sat
sat600:00−10wnw369683 0.5 1011242
03:00−15nw349781 0.5 101363
06:00−18nw34958 0.0 101459
09:00−16wnw369416 0.0 1014211
12:00−12w368852 0.0 1014380
15:00−9w588970 0.1 1013738
18:00−11w3893100 0.1 1012260
21:00−14wsw349494 0.1 101175
7 march, sun
sun700:00−15ssw479457 0.0 1009132
03:00−12s6129370 0.0 1005318
06:00−10ssw71590100 0.1 1001680
09:00−8ssw91491100 0.6 997887
12:00−5s91493100 0.8 9911034
15:00−4s91494100 2.8 9871036
18:00−5wsw61287100 2.0 986878
21:00−12wsw378783 2.2 987113